Regional Weather Roundup
Issued by NWS

Home | Current Version | Previous Version | Text Only | Print | Product List | Glossary On
Versions: 1 2 3 4 5 6 7 8 9 10 11 12 13 14 15 16 17 18 19 20 21 22 23 24 25 26 27 28 29 30 31 32 33 34 35 36 37 38 39 40 41 42 43 44 45 46 47 48 49 50
000
ASUS45 KPSR 010010
RWRAZ

ARIZONA REGIONAL HOURLY WEATHER ROUNDUP
NATIONAL WEATHER SERVICE PHOENIX AZ
500 PM MST THU JUL 31 2014

NOTE: FAIR INDICATES FEW OR NO CLOUDS BELOW 12,000 FEET WITH NO
SIGNIFICANT WEATHER AND/OR OBSTRUCTIONS TO VISIBILITY.

AZZ001>003-036-010100-
NORTHWEST ARIZONA

CITY           SKY/WX    TMP DP  RH WIND       PRES   REMARKS
BULLHEAD CITY  MOSUNNY  111  46  11 S5        29.72F HX 107
KINGMAN        PTSUNNY  100  41  13 SW17G23   29.98F
6HR MIN TEMP:  95; 6HR MAX TEMP: 103;

$$

AZZ004>008-015-016-018-010100-
NORTH CENTRAL ARIZONA

CITY           SKY/WX    TMP DP  RH WIND       PRES   REMARKS
GRAND CANYON   LGT RAIN  68  50  52 N9G20     30.32R
6HR MIN TEMP:  67; 6HR MAX TEMP:  85; 6HR PCP:  0.02;

WILLIAMS       CLOUDY    59  55  88 SE16G22   30.37F
PRESCOTT       TSTM      78  53  41 N21G30    30.17R
6HR MIN TEMP:  76; 6HR MAX TEMP:  90; 6HR PCP: TRACE;

FLAGSTAFF      LGT RAIN  59  56  89 N7        30.39F
6HR MIN TEMP:  56; 6HR MAX TEMP:  80; 6HR PCP:  0.58;

PAYSON         MOSUNNY   79  54  41 SE6       30.18S
PAGE           PTSUNNY   94  44  17 NE13      30.01F
6HR MIN TEMP:  89; 6HR MAX TEMP:  98;

$$

AZZ009>014-017-010100-
NORTHEAST ARIZONA

CITY           SKY/WX    TMP DP  RH WIND       PRES   REMARKS
WINSLOW        CLOUDY    79  49  34 W32G40    30.15R
6HR MIN TEMP:  78; 6HR MAX TEMP:  92;

SAINT JOHNS    PTSUNNY   86  45  23 NW17G23   30.15S
6HR MIN TEMP:  85; 6HR MAX TEMP:  90;

WINDOW ROCK    LGT RAIN  63  55  75 E12       30.28S
6HR MIN TEMP:  63; 6HR MAX TEMP:  84; 6HR PCP:  0.25;

SHOW LOW       PTSUNNY   81  46  30 W10G20    30.25F
$$

AZZ023-010100-
GREATER PHOENIX AREA

CITY           SKY/WX    TMP DP  RH WIND       PRES   REMARKS
PHOENIX        PTSUNNY  106  52  16 CALM      29.78F HX 103
6HR MIN TEMP: 101; 6HR MAX TEMP: 109;

BUCKEYE          N/A    104  57  21 S7        29.80F HX 103
GLENDALE       PTSUNNY  108  54  16 S9        29.80F HX 106
LUKE AFB       NOT AVBL
6HR MIN TEMP: 100; 6HR MAX TEMP: 107;

DEER VALLEY    SUNNY    104  51  17 W10       29.82F HX 101
6HR MIN TEMP:  96; 6HR MAX TEMP: 104;

SCOTTSDALE     SUNNY    105  54  18 CALM      29.83F HX 103
6HR MIN TEMP:  96; 6HR MAX TEMP: 105;

MESA-FALCON    PTSUNNY  104  54  18 VRB6      29.82F HX 102
MESA-GATEWAY   PTSUNNY  104  55  20 SW12      29.85F HX 103
$$

AZZ027-028-010100-
SOUTHWEST MARICOPA COUNTY AND PINAL COUNTY

CITY           SKY/WX    TMP DP  RH WIND       PRES   REMARKS
CASA GRANDE    PTSUNNY  104  54  18 S5        29.84F HX 102
6HR MIN TEMP:  99; 6HR MAX TEMP: 104;

GILA BEND      MOCLDY   108  48  13 E1        29.79F HX 104
$$

AZZ503-504-507>509-010100-
SOUTHEAST ARIZONA

CITY           SKY/WX    TMP DP  RH WIND       PRES   REMARKS
TUCSON         CLOUDY    95  52  23 W3        29.96F
6HR MIN TEMP:  93; 6HR MAX TEMP:  98;

DAVIS-MONTHAN  MOSUNNY   93  54  26 SE5       29.95F
6HR MIN TEMP:  90; 6HR MAX TEMP:  97;

RYAN FIELD       N/A     95  54  24 NW6       29.94F
NOGALES        MOSUNNY   93  55  27 NW6       30.04F
6HR MIN TEMP:  83; 6HR MAX TEMP:  95;

SIERRA VISTA   PTSUNNY   86  50  28 VRB5      30.12F
SAFFORD        SUNNY     95  52  23 NW9       29.95F
6HR MIN TEMP:  85; 6HR MAX TEMP:  96;

$$

AZZ020-021-025-026-031-010100-
SOUTHWEST ARIZONA

CITY           SKY/WX    TMP DP  RH WIND       PRES   REMARKS
YUMA           PTSUNNY  109  61  21 S14       29.73F HX 111
6HR MIN TEMP: 100; 6HR MAX TEMP: 110;

$$

CAZ031-033-041-043-047-048-061-010100-
SOUTHERN CALIFORNIA

CITY           SKY/WX    TMP DP  RH WIND       PRES   REMARKS
DOWNTOWN L.A.  SUNNY     80  60  50 NW3       29.85F
6HR MIN TEMP:  79; 6HR MAX TEMP:  87;

L.A. AIRPORT   MOSUNNY   73  61  65 W17       29.87F
6HR MIN TEMP:  73; 6HR MAX TEMP:  77;

SAN DIEGO      MOSUNNY   78  64  61 NW10      29.88F
6HR MIN TEMP:  76; 6HR MAX TEMP:  81;

BURBANK        SUNNY     90  57  32 S10       29.85F
6HR MIN TEMP:  84; 6HR MAX TEMP:  93;

ONTARIO        MOSUNNY   98  59  27 W15       29.84F
6HR MIN TEMP:  87; 6HR MAX TEMP:  99;

RIVERSIDE      SUNNY     96  58  27 W10G20    29.84F
6HR MIN TEMP:  86; 6HR MAX TEMP:  99;

PALM SPRINGS   MOSUNNY  109  54  16 E9        29.75F HX 107
6HR MIN TEMP: 107; 6HR MAX TEMP: 110;

EL CENTRO NAS  PTSUNNY  109  65  24 E12       29.69F HX 114
6HR MIN TEMP: 102; 6HR MAX TEMP: 110;

IMPERIAL       MOSUNNY  108  65  24 SE9       29.70F HX 112
BLYTHE           N/A    N/A N/A N/A MISG      29.72F
NEEDLES        MOSUNNY  113  43   9 SW10      29.74F HX 107
6HR MIN TEMP: 105; 6HR MAX TEMP: 114;

$$

NVZ020-UTZ003-010100-
SOUTHERN NEVADA-UTAH

CITY           SKY/WX    TMP DP  RH WIND       PRES   REMARKS
LAS VEGAS      MOSUNNY  106  40  10 SW16G23   29.80F HX 100
6HR MIN TEMP:  96; 6HR MAX TEMP: 109;

SALT LAKE CITY CLOUDY    82  52  35 W14       30.10F
6HR MIN TEMP:  79; 6HR MAX TEMP:  85;

$$

NMZ009-TXZ055-010100-
NEW MEXICO-WEST TEXAS

CITY           SKY/WX    TMP DP  RH WIND       PRES   REMARKS
ALBUQUERQUE    CLOUDY    80  58  46 W10       30.18S
6HR MIN TEMP:  74; 6HR MAX TEMP:  82;

EL PASO        MOSUNNY   89  56  32 SE12G20   30.04F
6HR MIN TEMP:  82; 6HR MAX TEMP:  90;

$$


........................KEY........................
SKY/WX - SKY CONDITION/WEATHER
TMP    - TEMPERATURE IN FAHRENHEIT
DP     - DEW POINT IN FAHRENHEIT
RH     - RELATIVE HUMIDITY IN PERCENT
WIND   - DIRECTION AND SPEED IN MILES PER HOUR (MPH)
VRB    - VARIABLE WIND DIRECTION
PRES   - MEAN SEA LEVEL PRESSURE IN INCHES OF MERCURY
         F - FALLING PRESSURE   R - RISING PRESSURE
         S - STEADY PRESSURE
VSB    - VISIBILITY IN MILES
HX     - HEAT INDEX IN FAHRENHEIT
WCI    - WIND CHILL INDEX IN FAHRENHEIT
TC     - TEMPERATURE IN CELSIUS WHICH IS ALSO KNOWN AS
         TEMPERATURE IN CENTIGRADE
AFB    - AIR FORCE BASE
         LUKE AFB IS LUKE AIR FORCE BASE
         DAVIS-MONTHAN IS DAVIS-MONTHAN AIR FORCE BASE
NAS    - NAVAL AIR STATION
         EL CENTRO NAS IS EL CENTRO NAVAL AIR STATION
N/A    - NOT AVAILABLE


USA.gov is the U.S. government's official web portal to all federal, state and local government web resources and services.